West Palm Beach, FL

8:41 AM EST on November 12, 2019 (GMT -0500)
Palm Beach International

Weather History for KPBI - September, 2019

Change the Weather History Date:

Monday, September 2, 2019

  Actual Average Record
Temperature  
Mean Temperature 80 °F 82 °F  
Max Temperature 85 °F 89 °F 94 °F (1911)
Min Temperature 75 °F 76 °F 69 °F (1975)
Degree Days  
Heating Degree Days 0 0  
Month to date heating degree days 0 0  
Since 1 July heating degree days 0 0  
Cooling Degree Days 15 17  
Month to date cooling degree days 35 34  
Year to date cooling degree days 3201 2740  
Growing Degree Days 30 (Base 50)    
Moisture  
Dew Point 76 °F    
Average Humidity 85    
Maximum Humidity 91    
Minimum Humidity 79    
Precipitation  
Precipitation 0.00 in 0.29 in 4.34 in (1977)
Month to date precipitation 0.09 0.58  
Year to date precipitation 44.05 41.30  
Snow  
Snow 0.00 in - - ()
Month to date snowfall 0.0  
Since 1 July snowfall 0.0  
Since 1 September snowfall 0.0  
Snow Depth 0.00 in    
Sea Level Pressure  
Sea Level Pressure 29.66 in    
Wind  
Wind Speed 18 mph (NW)    
Max Wind Speed 32 mph    
Max Gust Speed 40 mph    
Visibility 8 miles    
Events      
T = Trace of Precipitation, MM = Missing Value Source: NWS Daily Summary

Daily Weather History Graph

Daily Weather History Graph

Search for Another Location

Airport or City:

Astronomy

Sep. 02, 2019 Rise Set
Actual Time 7:00 AM EDT 7:39 PM EDT
Civil Twilight 6:36 AM EDT 8:02 PM EDT
Nautical Twilight 6:09 AM EDT 8:30 PM EDT
Astronomical Twilight 5:41 AM EDT 8:58 PM EDT
Moon 10:22 AM EDT (9/2) 10:21 PM EDT (9/2)
Length of Visible Light 13h 26m
Length of Day
12h 39m
Waxing Crescent, 15% of the Moon is Illuminated
Sep 2
Waxing Crescent
Sep 5
First Quarter
Sep 14
Full
Sep 21
Last Quarter
Sep 28
New

Hourly Weather History & Observations

Time (EDT) Temp. Heat Index Dew Point Humidity Pressure Visibility Wind Dir Wind Speed Gust Speed Precip Events Conditions
12:53 AM 79.0 °F - 75.9 °F 90% 29.76 in 10.0 mi NW 13.8 mph - N/A   Mostly Cloudy
1:36 AM 79.0 °F - 75.9 °F 90% 29.76 in 10.0 mi NW 12.7 mph - N/A   Mostly Cloudy
1:53 AM 80.1 °F 85.4 °F 75.9 °F 87% 29.75 in 10.0 mi NW 13.8 mph - N/A   Mostly Cloudy
2:53 AM 80.1 °F 85.4 °F 75.9 °F 87% 29.73 in 10.0 mi NW 10.4 mph - N/A   Overcast
3:24 AM 79.0 °F - 75.9 °F 90% 29.70 in 10.0 mi NW 11.5 mph - N/A   Overcast
3:46 AM 79.0 °F - 75.9 °F 90% 29.70 in 10.0 mi NNW 12.7 mph - N/A   Overcast
3:53 AM 80.1 °F 85.4 °F 75.9 °F 87% 29.70 in 10.0 mi NW 13.8 mph - N/A   Overcast
4:53 AM 79.0 °F - 75.9 °F 90% 29.68 in 10.0 mi NW 12.7 mph - N/A   Overcast
5:53 AM 79.0 °F - 75.9 °F 90% 29.69 in 10.0 mi WNW 13.8 mph - N/A   Overcast
6:53 AM 79.0 °F - 75.9 °F 90% 29.69 in 10.0 mi WNW 15.0 mph - N/A   Mostly Cloudy
7:53 AM 78.1 °F - 73.9 °F 87% 29.69 in 10.0 mi WNW 13.8 mph - N/A   Scattered Clouds
8:53 AM 78.1 °F - 75.0 °F 90% 29.70 in 7.0 mi NW 13.8 mph - N/A   Mostly Cloudy
9:53 AM 79.0 °F - 75.9 °F 90% 29.71 in 9.0 mi NW 16.1 mph - N/A   Overcast
10:02 AM 79.0 °F - 75.0 °F 88% 29.71 in 1.8 mi NW 18.4 mph - N/A   Overcast
10:14 AM 78.1 °F - 75.0 °F 90% 29.71 in 3.0 mi WNW 10.4 mph - N/A   Overcast
10:49 AM 80.6 °F 87.1 °F 77.0 °F 89% 29.71 in 10.0 mi WNW 19.6 mph 24.2 mph N/A   Overcast
10:53 AM 82.0 °F 90.2 °F 77.0 °F 85% 29.70 in 10.0 mi WNW 18.4 mph 24.2 mph N/A   Overcast
11:53 AM 82.9 °F 90.8 °F 75.9 °F 79% 29.69 in 10.0 mi NW 24.2 mph 32.2 mph N/A   Overcast
12:53 PM 82.0 °F 90.2 °F 77.0 °F 85% 29.69 in 10.0 mi NNW 18.4 mph - N/A   Mostly Cloudy
1:53 PM 84.0 °F 94.8 °F 78.1 °F 82% 29.66 in 10.0 mi NW 21.9 mph 27.6 mph N/A   Scattered Clouds
2:53 PM 81.0 °F 87.3 °F 75.9 °F 85% 29.64 in 5.0 mi NNW 21.9 mph 35.7 mph N/A   Haze
3:25 PM 75.9 °F - 72.0 °F 87% 29.65 in 2.5 mi NNW 21.9 mph 27.6 mph N/A   Overcast
3:28 PM 75.0 °F - 72.0 °F 90% 29.64 in 3.0 mi NW 16.1 mph 26.5 mph N/A   Mostly Cloudy
3:53 PM 79.0 °F - 75.0 °F 88% 29.62 in 10.0 mi WNW 13.8 mph 24.2 mph N/A   Clear
4:53 PM 82.0 °F 88.6 °F 75.0 °F 79% 29.62 in 10.0 mi NW 23.0 mph 27.6 mph N/A   Mostly Cloudy
5:11 PM 80.1 °F 85.1 °F 75.0 °F 85% 29.61 in 1.8 mi WNW 19.6 mph 34.5 mph N/A   Haze
5:18 PM 80.1 °F 85.1 °F 75.0 °F 85% 29.61 in 3.0 mi NW 24.2 mph 29.9 mph N/A   Haze
5:44 PM 79.0 °F - 75.0 °F 88% 29.62 in 2.5 mi NW 21.9 mph 28.8 mph N/A   Overcast
5:53 PM 79.0 °F - 75.9 °F 90% 29.62 in 10.0 mi NW 20.7 mph 27.6 mph N/A   Overcast
6:17 PM 79.0 °F - 75.9 °F 90% 29.63 in 6.0 mi NW 21.9 mph 27.6 mph N/A   Overcast
6:53 PM 79.0 °F - 75.0 °F 88% 29.63 in 9.0 mi NW 20.7 mph 28.8 mph N/A   Mostly Cloudy
7:53 PM 80.1 °F 85.1 °F 75.0 °F 85% 29.61 in 10.0 mi WNW 21.9 mph 28.8 mph N/A   Overcast
8:20 PM 79.0 °F - 75.9 °F 90% 29.61 in 2.5 mi NW 21.9 mph 40.3 mph N/A   Overcast
8:31 PM 79.0 °F - 75.9 °F 90% 29.62 in 6.0 mi NNW 20.7 mph 39.1 mph N/A   Overcast
8:53 PM 80.1 °F 85.4 °F 75.9 °F 87% 29.63 in 10.0 mi NW 19.6 mph 27.6 mph N/A   Mostly Cloudy
9:08 PM 79.0 °F - 75.9 °F 90% 29.65 in 2.5 mi NW 20.7 mph 28.8 mph N/A   Mostly Cloudy
9:15 PM 78.1 °F - 75.9 °F 93% 29.64 in 1.5 mi NNW 17.3 mph 28.8 mph N/A   Overcast
9:21 PM 78.1 °F - 75.9 °F 93% 29.64 in 3.0 mi NW 20.7 mph 28.8 mph N/A   Overcast
9:43 PM 78.1 °F - 75.9 °F 93% 29.64 in 4.0 mi NW 24.2 mph 35.7 mph N/A   Overcast
9:53 PM 78.1 °F - 75.9 °F 93% 29.64 in 4.0 mi NNW 15.0 mph - N/A   Overcast
10:17 PM 78.1 °F - 75.0 °F 90% 29.63 in 10.0 mi WNW 20.7 mph - N/A   Overcast
10:50 PM 78.8 °F - 75.2 °F 89% 29.63 in 8.0 mi NW 19.6 mph 28.8 mph N/A   Overcast
10:53 PM 78.1 °F - 75.9 °F 93% 29.63 in 9.0 mi NW 23.0 mph 31.1 mph N/A   Overcast
11:19 PM 79.0 °F - 75.0 °F 88% 29.63 in 9.0 mi NW 28.8 mph 35.7 mph N/A   Overcast
11:27 PM 78.1 °F - 75.0 °F 90% 29.63 in 6.0 mi NW 25.3 mph 36.8 mph N/A   Overcast
11:34 PM 78.1 °F - 75.0 °F 90% 29.62 in 8.0 mi NW 20.7 mph 31.1 mph N/A   Overcast
11:53 PM 78.1 °F - 75.0 °F 90% 29.62 in 7.0 mi NW 20.7 mph 29.9 mph N/A   Overcast